This demonstration page uses our WeatherBlox Daily Observations layout. Learn more.

Left ArrowRight Arrow

Hourly Observations for July 22, 2020

Temp ( °F °C ) Dew Point ( °F °C ) Humidity (%) Winds ( mph kmh ) Pressure ( in mb ) Visibility ( mi km ) Precip ( " mm )
12:51 am 00:51 Clear 81 27.2 58 14.4 45 45 E 6 9 29.8 1009 10 16.0934 0 0
1:51 am 01:51 Cloudy 81 27.2 59 15 47 47 ENE 7 11 29.78 1009 10 16.0934 0 0
2:51 am 02:51 Clear 81 27.2 58 14.4 45 45 NE 3 6 29.77 1008 10 16.0934 0 0
3:51 am 03:51 Mostly Cloudy 80 26.7 57 13.9 45 45 Calm 29.76 1008 10 16.0934 0 0
4:51 am 04:51 Partly Cloudy 79 26.1 59 15 50 50 S 7 11 29.78 1009 10 16.0934 0 0
5:51 am 05:51 Mostly Sunny 79 26.1 58 14.4 49 49 NE 3 6 29.79 1009 10 16.0934 0 0
6:51 am 06:51 Cloudy 79 26.1 59 15 50 50 SSE 5 7 29.83 1010 10 16.0934 0 0
7:51 am 07:51 Mostly Cloudy 82 27.8 59 15 46 46 ESE 7 11 29.83 1010 10 16.0934 0 0
8:51 am 08:51 Mostly Cloudy 84 28.9 59 15 43 43 ESE 8 13 29.83 1010 10 16.0934 0 0
9:51 am 09:51 Cloudy 85 29.4 59 15 42 42 SE 7 11 29.83 1010 10 16.0934 0 0
10:51 am 10:51 Mostly Cloudy 87 30.6 58 14.4 37 37 VRB 3 6 29.84 1011 10 16.0934 0 0
11:51 am 11:51 Cloudy 88 31.1 59 15 38 38 SSE 12 19 29.84 1010 10 16.0934 0 0
12:51 pm 12:51 Partly Cloudy 88 31.1 60 15.6 39 39 SSE 14 22 29.82 1010 10 16.0934 0 0
2:51 pm 14:51 Partly Cloudy 91 32.8 57 13.9 32 32 S 13 20 29.76 1008 10 16.0934 0 0
3:51 pm 15:51 Sunny 93 33.9 55 12.8 28 28 ESE 8 13 29.73 1007 10 16.0934 0 0
4:51 pm 16:51 Sunny 90 32.2 55 12.8 31 31 SSE 6 9 29.72 1006 10 16.0934 0 0
5:51 pm 17:51 undefined 90 32.2 55 12.8 31 31 S 6 9 29.72 1006 10 16.0934 0 0
6:51 pm 18:51 Sunny 90 32.2 55 12.8 31 31 S 5 7 29.72 1007 10 16.0934 0 0
7:51 pm 19:51 Clear 89 31.7 55 12.8 31 31 ESE 3 6 29.72 1007 10 16.0934 0 0
8:51 pm 20:51 Clear 88 31.1 56 13.3 34 34 SE 6 9 29.73 1007 10 16.0934 0 0
9:51 pm 21:51 Mostly Cloudy 86 30 56 13.3 36 36 E 6 9 29.75 1007 10 16.0934 0 0
10:51 pm 22:51 Cloudy 84 28.9 61 16.1 46 46 ESE 16 26 29.78 1008 10 16.0934 0 0
11:41 pm 23:41 Mostly Cloudy with Thunderstorms 82 27.8 62 16.7 51 51 E 13 20 29.76 1008 10 16.0934 0 0
11:51 pm 23:51 Cloudy 82 27.8 62 16.7 51 51 ESE 12 19 29.81 1009 10 16.0934 0 0

Powered by AerisWeather